User: anonymous   Login
Location: Caltech
(34.1382°N, 118.1253°W)
Time: 09:17:19
(UTC-07:00)
Language:

Iridium 94 - Orbit

View from above orbital plane
View from above orbital plane
View from above satellite
View from above satellite

Ground track
Ground track

The orbit data is extracted from the following two-line orbital elements,

1 27374U 02005C   17172.82963831 +.00000149 +00000-0 +46193-4 0  9999
2 27374 086.3972 253.7591 0002886 083.5100 055.2817 14.34216934816586
Epoch (UTC): 21 June 2017 19:54:40
Eccentricity: 0.0002886
inclination: 86.3972°
perigee height: 775 km
apogee height: 780 km
right ascension of ascending node: 253.7591°
argument of perigee: 83.5100°
revolutions per day: 14.34216934
mean anomaly at epoch: 55.2817°
orbit number at epoch: 81658

The dashed part of the orbit path shows where the satellite is in the earth's shadow,  

DLR